Location: Roland
(31.1349°N, 85.4372°W)
Time: 20:03:01
(UTC+00:00)

Vanguard 2 Rocket - Pass Details

Date: 22 April 2021
Orbit: 554 x 3326 km, 32.9° (Epoch: 13 May)

Event Time Altitude Azimuth Distance (km) Brightness Sun altitude
Rises 00:26:28 0° 288° (WNW) 7,308 15.0 -3.3°
Reaches altitude 10° 00:31:41 10° 285° (WNW) 6,191 13.1 -4.4°
Maximum altitude 00:49:53 57° 214° (SW) 2,844 9.5 -8.1°
Drops below altitude 10° 01:01:22 10° 139° (SE) 4,067 9.7 -10.4°
Enters shadow 01:02:04 - 137° (SE) 4,237 9.8 -10.5°
